Wind_Speed
21 19 18 16 14 12 9 7 5 4 2 2 3 5 6 7 8 9 10 11 12 12 12 12 13 13 12 12 13 13 13 13 12 11 11 11 10 10 9 8 7 7 7 6
23 22 20 19 17 14 12 9 7 6 4 3 1 1 4 4 5 7 8 9 10 11 11 11 11 12 11 11 12 12 12 12 12 11 11 11 10 10 10 9 8 8 7 7
24 23 22 20 18 17 14 12 10 9 8 6 4 2 2 2 3 5 7 8 8 9 9 9 10 10 11 11 11 11 11 11 11 11 10 11 11 10 10 9 9 8 7 6
26 26 24 22 20 19 17 15 13 12 11 8 6 4 2 2 3 4 6 7 7 8 9 8 8 9 10 10 10 11 11 11 11 10 10 10 10 11 10 9 9 8 7 7
27 27 25 24 22 21 20 18 16 15 14 11 9 7 5 4 3 3 5 5 6 7 7 7 7 8 9 9 9 10 11 11 11 10 10 10 10 10 10 10 9 8 8 8
28 27 26 25 24 24 22 21 19 18 17 15 12 11 8 6 5 3 4 5 6 6 6 7 7 7 8 8 8 9 10 10 10 10 10 10 10 10 10 10 9 9 9 9
29 29 28 27 26 26 25 23 22 21 19 17 15 14 11 9 8 5 4 5 6 7 6 6 7 8 7 7 8 8 9 10 10 10 10 10 10 10 11 10 9 9 10 10
31 30 29 28 28 27 27 25 24 23 22 20 19 17 14 13 11 9 7 6 6 6 6 6 7 7 7 7 8 8 9 9 9 10 10 10 11 11 11 10 10 10 10 10
32 30 30 29 29 30 30 29 27 26 25 23 21 19 16 15 13 11 10 8 7 7 7 6 7 7 7 8 8 9 8 9 9 10 11 11 11 11 11 11 11 11 11 11
33 32 31 31 31 31 31 30 29 29 27 26 24 22 18 16 15 14 12 10 9 9 9 8 8 8 8 9 9 9 9 9 9 10 10 11 11 11 12 12 12 11 11 11
33 33 32 32 32 32 32 32 31 30 30 28 26 23 20 18 17 15 13 12 11 10 10 10 9 9 9 10 10 10 9 10 10 10 11 11 12 12 12 12 12 12 12 12
34 34 33 33 33 33 33 32 31 31 30 29 27 24 21 20 19 16 15 14 13 12 11 11 10 11 11 11 11 10 11 11 11 11 12 12 12 13 13 14 14 13 12 12
35 35 34 34 35 34 34 34 32 31 31 30 29 25 22 21 20 18 17 15 14 13 12 12 12 12 12 12 12 12 12 12 12 12 12 13 13 13 13 14 14 13 12 12
37 36 35 35 34 34 34 34 33 32 32 31 29 25 23 22 20 19 18 17 17 15 14 14 13 13 14 14 14 13 13 12 12 12 13 13 13 12 13 14 14 13 13 13
38 37 36 35 35 35 34 34 33 33 32 31 29 26 23 22 21 20 19 18 17 16 16 16 15 16 16 16 15 15 14 13 14 14 14 13 13 13 13 14 14 14 14 14
38 38 37 36 36 36 35 34 33 33 32 31 30 28 25 24 23 21 21 20 19 18 18 17 17 17 17 17 16 16 16 15 15 15 15 14 14 14 14 14 14 15 15 15
37 37 37 37 36 36 37 34 33 33 32 31 31 29 27 26 24 22 21 20 20 19 19 18 18 17 17 17 17 17 17 17 17 17 16 16 16 16 16 16 16 16 16 16
35 36 36 35 36 38 35 34 34 34 33 32 31 29 29 27 25 24 23 22 21 20 19 19 18 18 18 18 17 17 18 18 18 18 18 18 18 18 17 17 18 17 17 17
36 36 36 35 36 36 35 34 34 34 34 33 32 30 29 28 27 26 23 22 22 22 21 20 19 19 19 19 19 19 19 19 19 19 19 19 19 19 19 18 19 18 18 18
36 36 37 36 36 36 34 34 34 35 35 33 33 31 30 29 29 26 24 23 23 23 22 21 20 20 20 20 20 20 20 20 20 19 19 20 20 20 21 21 20 20 19 19
36 36 36 36 36 35 34 34 34 35 34 33 33 32 31 30 28 26 26 26 25 24 24 24 23 23 22 22 21 21 20 20 20 20 20 21 21 22 22 22 21 20 19 20
35 35 36 36 36 36 35 34 35 34 33 33 32 32 31 30 29 27 27 27 27 25 25 24 24 24 23 22 21 21 20 20 20 21 22 23 23 22 22 22 20 19 19 19
35 36 36 36 36 35 35 35 35 34 34 33 33 32 31 30 29 29 29 28 27 26 25 25 24 23 24 23 22 22 22 22 21 22 22 23 23 23 23 21 21 21 20 20
35 35 35 35 35 34 34 35 34 33 32 32 33 32 32 32 30 30 31 30 29 28 27 26 25 24 25 24 24 23 23 23 23 23 22 22 22 22 23 22 22 20 20 21
36 35 35 35 35 35 34 34 33 32 32 32 32 32 32 32 32 32 32 31 30 30 29 29 28 26 24 24 24 24 23 23 23 23 23 23 23 24 24 23 22 23 21 22
35 35 35 35 35 35 35 34 33 33 32 32 31 31 32 33 32 32 31 31 31 30 30 28 28 27 27 26 26 25 25 24 24 24 24 23 23 23 23 24 24 24 23 22
Wind_Direction
212 212 212 216 216 212 206 210 212 206 184 114 80 55 43 36 30 29 31 33 35 37 37 37 36 38 39 41 42 44 45 45 47 45 43 42 42 40 34 32 30 21 10 360
213 214 216 218 219 218 215 218 219 216 226 222 200 45 33 36 30 23 25 27 29 32 34 34 36 37 36 37 39 41 42 42 42 42 39 37 34 30 28 29 24 18 13 10
214 216 218 219 221 221 221 220 222 223 234 240 242 249 355 14 14 18 15 15 20 23 28 32 32 33 31 30 30 33 35 37 37 36 33 31 27 24 22 20 18 14 8 360
214 216 217 219 221 223 222 223 224 228 234 242 249 244 274 311 353 11 6 6 11 17 20 23 22 24 22 21 21 24 27 30 31 30 29 24 21 19 16 12 8 4 359 351
216 216 218 219 221 223 223 224 225 227 232 241 248 254 260 277 310 351 352 350 358 5 11 11 13 14 13 13 17 19 26 26 26 27 23 18 13 9 6 4 1 358 354 346
218 219 220 220 221 224 225 224 225 229 234 241 249 257 261 264 285 305 329 332 334 343 352 360 1 3 6 7 11 11 17 17 19 19 17 12 7 2 360 357 355 351 345 337
220 221 222 222 224 226 225 225 229 233 237 243 248 254 260 264 272 277 291 306 313 324 330 343 348 353 359 1 3 4 6 6 8 8 6 5 3 358 352 349 348 344 340 334
222 222 223 223 225 227 228 229 232 237 240 244 247 253 257 262 266 269 276 283 294 310 314 322 332 340 347 349 351 354 355 359 358 357 357 358 357 354 351 347 344 342 338 335
224 224 224 225 224 226 228 231 233 237 241 245 249 252 251 256 265 268 271 272 281 294 298 307 316 323 331 337 340 344 347 348 349 349 352 353 353 352 350 348 343 340 336 333
225 225 225 225 226 228 229 232 234 237 241 246 249 250 252 255 262 267 267 272 281 284 288 297 303 308 315 320 326 332 334 337 341 345 347 348 347 345 344 341 339 336 334 331
225 225 225 226 227 230 231 232 235 239 242 247 250 251 252 255 256 261 267 272 277 282 287 291 294 300 307 310 312 318 324 327 330 335 338 337 337 339 339 337 335 333 330 329
226 227 226 226 227 229 231 233 237 240 244 247 250 251 251 253 254 256 262 266 270 274 279 285 292 297 301 304 303 307 311 315 319 323 328 329 330 331 333 333 333 333 333 333
227 228 227 225 226 229 232 234 237 239 243 246 249 250 250 252 255 255 258 261 266 270 276 281 285 291 295 295 293 296 301 304 309 314 320 323 324 325 327 328 328 328 328 328
229 230 230 229 230 231 233 235 238 240 242 245 247 248 247 249 253 254 256 258 263 268 273 279 280 287 291 290 287 289 293 296 300 303 309 316 319 320 322 324 326 324 322 322
229 230 231 230 230 231 233 235 238 240 243 245 246 246 244 246 250 251 253 256 261 266 271 277 280 286 286 286 284 284 288 290 294 296 299 307 311 312 315 318 322 322 321 319
229 231 231 230 230 231 231 233 236 239 242 245 245 244 243 243 248 251 252 256 259 265 269 275 280 284 284 283 282 280 284 285 287 290 294 299 305 308 309 312 316 317 317 316
230 231 232 232 232 233 232 232 235 239 242 244 244 244 243 244 247 251 254 256 260 262 265 271 277 281 283 284 282 278 280 281 282 284 289 294 298 302 304 306 310 312 312 313
230 231 233 234 233 234 234 234 236 238 240 242 245 245 244 246 247 250 252 254 256 257 261 267 272 276 279 279 277 278 279 278 280 282 286 292 295 298 302 303 304 305 306 308
230 231 233 234 235 236 235 235 236 238 239 241 243 245 245 246 248 250 252 252 252 256 261 264 270 274 275 273 274 275 277 276 278 281 285 287 290 294 297 300 300 301 301 303
231 232 233 235 236 235 236 237 237 239 240 241 243 244 245 245 247 251 251 252 254 257 260 263 267 270 273 273 272 273 274 274 276 279 280 282 285 290 295 296 297 300 299 299
232 233 234 235 236 236 236 236 237 239 241 241 243 244 244 245 249 251 250 252 255 257 260 263 265 267 269 272 274 274 274 272 274 276 278 281 284 286 291 294 293 295 298 301
232 233 234 235 235 236 236 237 237 239 241 241 241 242 243 244 245 247 249 250 253 256 261 265 266 264 266 268 270 273 272 272 275 278 279 281 283 287 289 291 291 293 295 298
232 233 234 235 236 237 236 237 238 237 239 240 239 240 242 244 243 245 248 250 253 257 262 265 265 264 264 265 267 269 271 271 274 279 281 281 282 287 290 290 293 295 293 295
232 232 233 234 235 236 237 237 236 237 238 238 239 239 241 242 244 246 247 250 253 255 259 261 263 266 267 267 265 264 267 270 274 277 280 282 282 285 290 293 296 296 296 297
232 231 232 234 235 236 237 238 236 236 236 237 238 239 239 240 243 246 249 251 252 253 255 259 261 263 265 264 264 261 263 268 272 276 278 280 282 285 289 292 293 296 295 296
231 231 232 233 235 237 238 238 236 236 235 236 237 238 238 240 243 245 248 249 251 251 253 256 259 260 261 260 260 259 262 267 272 273 276 280 284 287 290 292 293 294 294 296
Height
5906 5910 5912 5914 5916 5918 5919 5921 5923 5923 5923 5924 5924 5924 5925 5924 5923 5923 5922 5921 5920 5918 5917 5916 5914 5913 5912 5911 5909 5908 5906 5905 5904 5903 5902 5901 5900 5899 5897 5896 5895 5894 5894 5893
5905 5907 5910 5911 5914 5916 5918 5920 5922 5923 5923 5924 5924 5925 5925 5925 5924 5924 5924 5923 5921 5920 5919 5917 5916 5915 5914 5912 5911 5910 5908 5906 5905 5904 5903 5902 5901 5900 5899 5897 5896 5895 5894 5894
5901 5905 5906 5909 5912 5914 5916 5919 5921 5922 5922 5923 5924 5925 5925 5926 5925 5925 5925 5924 5923 5921 5920 5918 5917 5916 5915 5914 5913 5911 5910 5908 5906 5905 5904 5903 5902 5901 5900 5898 5897 5896 5895 5894
5897 5901 5904 5907 5910 5912 5915 5917 5918 5920 5921 5922 5924 5924 5926 5926 5926 5925 5925 5924 5923 5922 5921 5919 5918 5917 5916 5915 5914 5913 5911 5909 5908 5906 5905 5904 5903 5902 5900 5899 5898 5896 5895 5894
5894 5897 5900 5904 5907 5910 5912 5914 5916 5918 5919 5920 5922 5923 5925 5925 5925 5925 5925 5924 5923 5922 5921 5920 5919 5918 5917 5916 5915 5913 5912 5910 5909 5907 5906 5905 5904 5902 5901 5899 5898 5896 5895 5894
5890 5893 5897 5901 5904 5906 5909 5912 5914 5915 5917 5918 5920 5922 5924 5924 5925 5925 5925 5924 5923 5922 5921 5920 5919 5918 5917 5916 5915 5914 5913 5911 5910 5908 5907 5906 5904 5903 5901 5899 5898 5896 5894 5893
5885 5889 5893 5897 5900 5903 5906 5909 5911 5912 5914 5916 5918 5919 5922 5923 5923 5924 5924 5924 5923 5922 5921 5920 5919 5918 5917 5916 5915 5914 5913 5911 5910 5909 5907 5906 5904 5902 5901 5899 5897 5896 5894 5892
5881 5885 5889 5892 5896 5899 5902 5905 5908 5910 5911 5914 5915 5916 5920 5920 5922 5922 5922 5922 5921 5921 5920 5920 5919 5918 5917 5916 5915 5914 5912 5911 5910 5909 5907 5905 5904 5902 5900 5898 5896 5895 5893 5891
5875 5881 5884 5888 5891 5894 5897 5900 5904 5906 5907 5910 5911 5914 5916 5918 5919 5920 5920 5920 5920 5920 5919 5919 5918 5917 5917 5916 5915 5913 5912 5911 5909 5908 5907 5905 5903 5901 5899 5897 5895 5894 5892 5890
5870 5875 5879 5882 5886 5889 5893 5896 5899 5901 5903 5905 5908 5910 5913 5915 5916 5918 5918 5918 5918 5918 5918 5917 5917 5916 5916 5915 5914 5913 5912 5910 5909 5907 5906 5904 5903 5901 5898 5897 5895 5893 5891 5889
5864 5869 5873 5877 5880 5884 5887 5891 5893 5896 5899 5901 5904 5909 5910 5912 5913 5915 5915 5916 5916 5916 5916 5916 5915 5915 5914 5913 5912 5912 5911 5910 5908 5906 5904 5903 5901 5899 5897 5895 5893 5891 5890 5888
5857 5862 5866 5871 5875 5878 5881 5885 5888 5892 5894 5896 5899 5905 5906 5908 5910 5911 5912 5913 5913 5914 5913 5913 5913 5913 5912 5911 5910 5910 5909 5908 5907 5905 5903 5901 5900 5898 5896 5894 5892 5890 5888 5887
5851 5855 5860 5864 5869 5872 5875 5878 5882 5886 5889 5891 5894 5901 5902 5903 5905 5907 5909 5909 5910 5910 5910 5910 5910 5910 5909 5909 5908 5907 5906 5906 5905 5903 5902 5900 5898 5896 5894 5892 5890 5889 5887 5885
5844 5848 5853 5859 5862 5866 5869 5873 5876 5879 5882 5885 5889 5894 5897 5899 5901 5903 5904 5905 5906 5906 5907 5907 5907 5907 5906 5906 5905 5904 5903 5903 5902 5901 5899 5898 5896 5894 5892 5891 5889 5887 5885 5884
5836 5841 5846 5851 5855 5859 5863 5867 5870 5873 5877 5880 5884 5888 5892 5894 5896 5898 5900 5901 5902 5902 5902 5903 5903 5903 5902 5902 5901 5901 5900 5900 5899 5898 5897 5895 5894 5892 5890 5889 5887 5885 5883 5882
5829 5834 5839 5844 5848 5851 5856 5860 5864 5867 5871 5874 5878 5882 5886 5888 5890 5892 5894 5896 5897 5898 5898 5898 5898 5898 5898 5898 5897 5897 5897 5896 5895 5894 5893 5892 5891 5889 5888 5886 5885 5883 5881 5879
5822 5827 5832 5836 5841 5844 5848 5854 5857 5861 5864 5868 5871 5876 5879 5882 5885 5887 5889 5891 5892 5893 5893 5893 5894 5894 5894 5894 5893 5893 5893 5892 5891 5891 5890 5889 5888 5886 5885 5883 5882 5880 5878 5876
5816 5820 5824 5829 5833 5836 5845 5847 5850 5854 5858 5861 5865 5868 5872 5876 5879 5881 5883 5885 5886 5887 5888 5888 5889 5889 5889 5889 5888 5888 5888 5888 5887 5887 5886 5885 5884 5883 5881 5880 5879 5877 5875 5873
5808 5813 5817 5821 5825 5830 5836 5840 5843 5847 5851 5854 5858 5861 5865 5869 5871 5875 5877 5879 5880 5881 5882 5883 5884 5884 5884 5883 5883 5883 5883 5882 5882 5882 5882 5881 5880 5879 5878 5876 5875 5873 5872 5870
5801 5805 5810 5813 5817 5822 5830 5833 5836 5840 5843 5848 5851 5855 5858 5861 5865 5869 5871 5873 5874 5875 5877 5877 5878 5878 5878 5877 5878 5878 5877 5877 5877 5877 5877 5876 5875 5874 5873 5872 5871 5870 5868 5866
5793 5797 5801 5805 5810 5815 5821 5825 5829 5833 5838 5841 5844 5848 5851 5854 5859 5862 5864 5866 5868 5869 5870 5871 5871 5872 5872 5872 5872 5872 5872 5872 5872 5872 5872 5871 5870 5869 5869 5868 5866 5865 5863 5862
5785 5790 5794 5798 5802 5809 5813 5817 5821 5825 5829 5833 5837 5840 5844 5847 5851 5854 5857 5859 5861 5862 5863 5864 5864 5865 5865 5866 5866 5867 5867 5868 5868 5867 5867 5866 5865 5864 5864 5863 5862 5860 5859 5858
5778 5783 5786 5791 5797 5800 5804 5808 5812 5816 5821 5825 5829 5833 5836 5840 5843 5846 5849 5852 5853 5855 5856 5857 5858 5858 5859 5860 5861 5861 5862 5862 5862 5862 5861 5861 5860 5859 5858 5858 5857 5856 5854 5853
5770 5774 5779 5783 5788 5792 5796 5799 5804 5808 5812 5816 5820 5825 5829 5832 5836 5839 5841 5844 5846 5847 5849 5850 5850 5851 5852 5853 5854 5855 5856 5857 5857 5857 5856 5856 5855 5854 5854 5853 5852 5851 5849 5847
5763 5767 5771 5776 5780 5784 5788 5792 5796 5800 5804 5808 5812 5816 5820 5824 5827 5831 5833 5836 5837 5839 5841 5842 5843 5844 5845 5846 5847 5848 5850 5850 5851 5851 5851 5850 5850 5849 5849 5848 5847 5846 5844 5842
5756 5760 5764 5769 5773 5777 5781 5784 5788 5792 5796 5800 5805 5809 5812 5816 5819 5822 5825 5827 5829 5831 5833 5834 5836 5837 5838 5839 5840 5842 5843 5844 5845 5845 5845 5844 5844 5844 5843 5842 5841 5839 5838 5836